This demonstration page uses our WeatherBlox Daily Observations layout. Learn more.

39.08367, -84.50855

Hourly Observations for June 28, 2019

Temp ( °F °C ) Dew Point ( °F °C ) Humidity (%) Winds ( mph kmh ) Pressure ( in mb ) Visibility ( mi km ) Precip ( " mm )
12:53 am 00:53 Clear 72 22.2 69 20.6 91 91 Calm 30.18 1022 10 16.09344 0 0
1:53 am 01:53 Clear 70 21.1 68 20 93 93 Calm 30.15 1021 10 16.09344 0 0
2:53 am 02:53 Clear 69 20.6 68 20 96 96 SSE 5 7 30.15 1021 10 16.09344 0 0
3:53 am 03:53 Clear 69 20.6 68 20 96 96 Calm 30.15 1021 9 14.484096 0 0
4:53 am 04:53 Clear with Mist and Fog 68 20 68 20 100 100 SSW 5 7 30.15 1021 6 9.656064 0 0
5:53 am 05:53 Clear with Mist and Fog 67 19.4 67 19.4 100 100 Calm 30.15 1021 5 8.04672 0 0
6:53 am 06:53 Sunny with Mist and Fog 69 20.6 68 20 96 96 Calm 30.18 1022 6 9.656064 0 0
7:53 am 07:53 Sunny 71 21.7 70 21.1 96 96 S 5 7 30.18 1022 10 16.09344 0 0
8:53 am 08:53 Sunny 76 24.4 71 21.7 85 85 S 3 6 30.21 1023 10 16.09344 0 0
9:53 am 09:53 Sunny 80 26.7 73 22.8 79 79 SSW 6 9 30.18 1022 10 16.09344 0 0
10:53 am 10:53 Sunny 83 28.3 72 22.2 70 70 SSW 6 9 30.18 1022 10 16.09344 0 0
11:53 am 11:53 Mostly Sunny 86 30 71 21.7 61 61 S 3 6 30.18 1022 10 16.09344 0 0
12:53 pm 12:53 Partly Cloudy 87 30.6 72 22.2 61 61 S 6 9 30.18 1022 10 16.09344 0 0
1:53 pm 13:53 Mostly Cloudy 88 31.1 70 21.1 55 55 SW 8 13 30.15 1021 10 16.09344 0 0
2:53 pm 14:53 Mostly Sunny 89 31.7 71 21.7 55 55 VRB 5 7 30.15 1021 10 16.09344 0 0
3:53 pm 15:53 Partly Cloudy 87 30.6 70 21.1 57 57 SSW 7 11 30.12 1020 10 16.09344 0 0
4:53 pm 16:53 Mostly Cloudy 86 30 71 21.7 61 61 SSW 8 13 30.09 1019 10 16.09344 0 0
5:53 pm 17:53 Sunny 89 31.7 68 20 50 50 WSW 6 9 30.09 1019 10 16.09344 0 0
6:53 pm 18:53 Partly Cloudy 89 31.7 69 20.6 52 52 W 7 11 30.09 1019 10 16.09344 0 0
7:53 pm 19:53 Sunny 86 30 68 20 55 55 W 7 11 30.09 1019 10 16.09344 0 0
8:53 pm 20:53 Sunny 80 26.7 74 23.3 82 82 SE 3 6 30.09 1019 10 16.09344 0 0
9:53 pm 21:53 Clear 76 24.4 72 22.2 88 88 Calm 30.12 1020 10 16.09344 0 0
10:53 pm 22:53 Clear 74 23.3 71 21.7 91 91 Calm 30.15 1021 10 16.09344 0 0
11:53 pm 23:53 Clear 73 22.8 70 21.1 90 90 Calm 30.12 1020 10 16.09344 0 0

Powered by AerisWeather